Location: Moonridge Observatory
(39.2268°N, 77.7914°W)
Time: 21:19:56
(UTC-05:00)

Amateur Radio Satellites - All Passes

Search period start: 25 January 2015 20:49
Search period end: 26 January 2015 20:49
Location: Moonridge Observatory, 39.2268°N, 77.7914°W

Satellite Date Start Highest point End Downlink Frequencies (MHz)
Time Altitude Azimuth
JUGNU 25 Jan 20:55:38 20:57:14 11° 181° (S) 20:58:50 437.505
CINEMA 3 25 Jan 20:59:21 21:04:11 87° 79° (E) 21:09:15 145.822/145.860
CUTE 1.7 + AOD 2 25 Jan 21:01:22 21:05:13 31° 264° (W) 21:09:01 437.475
CUBEBUG 2 25 Jan 21:01:58 21:06:34 55° 74° (ENE) 21:11:16 437.445
AAUSAT CUBESAT 2 25 Jan 21:03:34 21:07:38 46° 261° (W) 21:11:42 437.432
UKube-1 25 Jan 21:20:52 21:25:10 77° 76° (ENE) 21:29:31 .
DELFI C3 25 Jan 21:21:28 21:25:34 75° 258° (WSW) 21:29:40 145.870
YUBILEINY 25 Jan 21:26:13 21:34:08 37° 289° (WNW) 21:41:57 435.215
ZACube-1 25 Jan 21:27:16 21:31:50 72° 75° (ENE) 21:36:28 437.345
SRMSAT 25 Jan 21:28:51 21:29:52 10° 175° (S) 21:30:56 437.500
ESTCUBE 1 25 Jan 21:34:02 21:36:53 17° 67° (ENE) 21:39:53 437.505/2401.250
BRITE-PL 25 Jan 21:36:34 21:39:04 13° 274° (W) 21:41:21 437.365/2234.400
DX 1 25 Jan 21:36:52 21:41:12 67° 258° (WSW) 21:45:33 434.975-435.025
SEEDS 25 Jan 21:39:25 21:41:50 14° 270° (W) 21:44:03 437.485
ANTELSAT 25 Jan 21:39:35 21:41:02 12° 88° (E) 21:42:45 437.575/2403.000
FUNcube-1 25 Jan 21:40:36 21:45:11 83° 259° (WSW) 21:49:49 145.935
AISAT 25 Jan 21:42:22 21:46:37 49° 73° (ENE) 21:50:58 437.250
SO-50 25 Jan 21:47:46 21:50:52 16° 250° (WSW) 21:53:44 436.795
HO-68 25 Jan 21:48:03 21:53:11 20° 270° (W) 21:58:00 435.675
TIGRISAT 25 Jan 21:48:54 21:51:22 15° 90° (E) 21:53:59 435.000
UWE-3 25 Jan 21:50:39 21:55:12 53° 261° (W) 21:59:49 435.000/436.395/437.385
GOMX 1 25 Jan 21:52:23 21:54:51 13° 274° (W) 21:57:05 467.674
HUMSAT D 25 Jan 22:01:38 22:05:59 85° 258° (WSW) 22:10:22 437.325/437.525
AIST 1 25 Jan 22:04:43 22:07:40 18° 72° (ENE) 22:10:45
POPSAT HIP 1 25 Jan 22:07:35 22:09:46 14° 90° (E) 22:12:09 437.405
BUGSAT 1 25 Jan 22:07:55 22:08:08 10° 88° (E) 22:08:38 437.445
DUCHIFAT 1 25 Jan 22:12:19 22:14:52 16° 91° (E) 22:17:36 145.980
VELOX 1 25 Jan 22:12:38 22:17:03 78° 258° (WSW) 22:21:32 145.980
50 SAT 25 Jan 22:14:27 22:18:36 80° 258° (WSW) 22:22:46 437.505
ISS 25 Jan 22:22:19 22:24:52 22° 133° (SE) 22:27:29 145.825
Oscar 11 25 Jan 22:26:42 22:28:41 12° 271° (W) 22:30:25 145.826/435.025
CUBEBUG 1 25 Jan 22:33:14 22:37:32 69° 76° (ENE) 22:41:53 437.445
SPROUT 25 Jan 22:36:07 22:38:52 17° 67° (ENE) 22:41:46 437.525
UNISAT 6 25 Jan 22:38:14 22:42:40 55° 99° (E) 22:46:59 437.425
CUBEBUG 2 25 Jan 22:40:59 22:43:42 15° 271° (W) 22:46:13 437.445
NANOSAT C BR1 25 Jan 22:44:51 22:48:52 37° 97° (E) 22:52:52 145.865
QB50P2 25 Jan 22:56:42 23:00:56 52° 100° (E) 23:05:09 145.880/145.840
QB50P1 25 Jan 23:07:24 23:11:44 70° 102° (ESE) 23:16:01 145.935-145.965
ZACube-1 25 Jan 23:08:03 23:08:49 10° 273° (W) 23:09:16 437.345
ESTCUBE 1 25 Jan 23:09:12 23:13:29 43° 262° (W) 23:17:46 437.505/2401.250
ANTELSAT 25 Jan 23:13:56 23:18:23 59° 285° (WNW) 23:22:40 437.575/2403.000
SRMSAT 25 Jan 23:17:24 23:18:08 10° 186° (S) 23:18:50 437.500
POLYITAN 1 25 Jan 23:19:28 23:23:50 84° 284° (WNW) 23:28:08 437.675
AISAT 25 Jan 23:21:06 23:23:37 14° 270° (W) 23:25:56 437.250
TIGRISAT 25 Jan 23:24:10 23:28:30 46° 287° (WNW) 23:32:40 435.000
TISAT 1 25 Jan 23:25:15 23:29:24 60° 75° (ENE) 23:33:37 437.305
SWISSCUBE 25 Jan 23:39:23 23:42:04 16° 65° (ENE) 23:44:56 437.505
BUGSAT 1 25 Jan 23:39:53 23:44:09 64° 285° (WNW) 23:48:22 437.445
AIST 1 25 Jan 23:41:33 23:45:30 34° 268° (W) 23:49:26
POPSAT HIP 1 25 Jan 23:41:50 23:46:00 47° 287° (WNW) 23:50:07 437.405
DUCHIFAT 1 25 Jan 23:46:55 23:50:59 41° 287° (WNW) 23:55:01 145.980
BEESAT 25 Jan 23:55:08 23:58:34 21° 67° (ENE) 00:02:08 436.000
ITUPSAT 1 25 Jan 23:56:30 23:59:57 21° 67° (ENE) 00:03:32 437.325
ISS 25 Jan 23:58:08 00:01:15 38° 328° (NNW) 00:04:21 145.825
SPROUT 26 Jan 00:10:38 00:14:41 40° 262° (W) 00:18:47 437.525
UNISAT 6 26 Jan 00:16:37 00:19:02 14° 295° (WNW) 00:21:13 437.425
NANOSAT C BR1 26 Jan 00:21:28 00:24:30 18° 293° (WNW) 00:27:24 145.865
QB50P2 26 Jan 00:34:12 00:36:28 14° 294° (WNW) 00:38:32 145.880/145.840
QB50P1 26 Jan 00:46:02 00:47:07 11° 296° (WNW) 00:47:57 145.935-145.965
Oscar 19 26 Jan 00:56:54 01:01:10 26° 94° (E) 01:05:30 437.125/150
TISAT 1 26 Jan 01:04:41 01:05:44 11° 272° (W) 01:06:29 437.305
ITAMSAT 1 26 Jan 01:07:26 01:08:00 10° 87° (E) 01:08:58 435.822/435.867
M-CUBED/EXP-1 PRIME 26 Jan 01:13:07 01:14:57 13° 63° (ENE) 01:16:54 437.505
SWISSCUBE 26 Jan 01:14:52 01:19:32 56° 259° (W) 01:24:14 437.505
KKS-1 26 Jan 01:17:55 01:21:41 28° 70° (ENE) 01:25:33 437.445
STARS 26 Jan 01:20:53 01:24:02 20° 67° (ENE) 01:27:20 437.465
GONETS M04 26 Jan 01:30:23 01:38:56 62° 92° (E) 01:47:32
BEESAT 26 Jan 01:31:42 01:36:11 40° 262° (W) 01:40:40 436.000
ITUPSAT 1 26 Jan 01:33:08 01:37:38 40° 262° (W) 01:42:06 437.325
ISS 26 Jan 01:37:06 01:38:30 12° 347° (NNW) 01:39:53 145.825
Gurwin Techsat 1B 26 Jan 01:39:47 01:42:54 16° 90° (E) 01:46:15 435.225
O/OREOS (USA 219) 26 Jan 01:41:25 01:44:05 15° 54° (NE) 01:46:54 437.305
AUBIESAT-1 26 Jan 01:47:46 01:51:17 28° 67° (ENE) 01:54:37 437.475
BEESAT 2 26 Jan 02:11:12 02:13:20 14° 110° (ESE) 02:15:40 435.950
BEESAT 3 26 Jan 02:27:54 02:31:14 25° 113° (ESE) 02:34:42 437.485
Oscar 19 26 Jan 02:35:56 02:40:36 35° 291° (WNW) 02:45:11 437.125/150
ITAMSAT 1 26 Jan 02:43:02 02:48:17 85° 285° (WNW) 02:53:32 435.822/435.867
M-CUBED/EXP-1 PRIME 26 Jan 02:45:32 02:49:42 52° 255° (WSW) 02:53:31 437.505
KKS-1 26 Jan 02:54:32 02:58:19 26° 265° (W) 03:02:03 437.445
CUSAT 1 26 Jan 02:55:19 02:58:43 14° 80° (E) 03:02:49 437.405
STARS 26 Jan 02:56:10 03:00:18 37° 263° (W) 03:04:26 437.465
HORYU 2 26 Jan 02:58:20 03:02:08 27° 95° (E) 03:05:57 437.375
ISS 26 Jan 03:15:28 03:16:11 11° 8° (N) 03:16:56 145.825
Gurwin Techsat 1B 26 Jan 03:18:07 03:23:22 59° 287° (WNW) 03:28:34 435.225
O/OREOS (USA 219) 26 Jan 03:19:25 03:23:56 56° 252° (WSW) 03:28:25 437.305
AUBIESAT-1 26 Jan 03:22:55 03:26:12 22° 259° (W) 03:29:14 437.475
AIST 2 26 Jan 03:23:36 03:27:29 37° 115° (ESE) 03:31:28 435.215
GONETS M04 26 Jan 03:29:05 03:36:28 28° 293° (WNW) 03:43:34
AO-7 26 Jan 03:39:29 03:46:58 37° 97° (E) 03:54:32 29.400- 29.500
DANDE 26 Jan 03:45:37 03:52:05 30° 86° (E) 03:59:22 436.750
BEESAT 2 26 Jan 03:47:11 03:51:11 49° 305° (NW) 03:55:16 435.950
RS-15 26 Jan 03:55:40 04:03:27 24° 104° (ESE) 04:11:46 29.354- 29.394
BEESAT 3 26 Jan 04:05:41 04:09:18 29° 310° (NW) 04:12:57 437.485
MOZHAYETS 4 26 Jan 04:05:48 04:10:22 66° 75° (ENE) 04:14:56
ITAMSAT 1 26 Jan 04:25:45 04:27:05 11° 300° (WNW) 04:28:07 435.822/435.867
CUSAT 1 26 Jan 04:32:43 04:40:30 72° 96° (E) 04:49:01 437.405
HORYU 2 26 Jan 04:35:01 04:38:45 26° 291° (WNW) 04:42:22 437.375
JAS-2 26 Jan 04:47:19 04:52:49 59° 101° (E) 04:58:59 435.910
ISS 26 Jan 04:50:46 04:53:36 26° 27° (NNE) 04:56:27 145.825
PCSat 26 Jan 04:56:02 05:01:21 62° 114° (ESE) 05:06:44 145.827
AIST 2 26 Jan 05:02:49 05:06:15 23° 313° (NW) 05:09:39 435.215
DANDE 26 Jan 05:27:16 05:35:03 62° 284° (WNW) 05:43:41 436.750
AO-7 26 Jan 05:32:02 05:39:58 49° 295° (WNW) 05:47:47 29.400- 29.500
YUBILEINY 26 Jan 05:41:01 05:47:11 22° 64° (ENE) 05:53:44 435.215
PRISM 26 Jan 05:45:51 05:49:59 89° 80° (E) 05:54:07 437.425
MOZHAYETS 4 26 Jan 05:46:40 05:48:09 11° 272° (W) 05:49:20
CUBESAT XI-V 26 Jan 05:47:57 05:52:27 58° 74° (ENE) 05:57:00 437.345
Cubesat XI-IV 26 Jan 05:57:28 06:02:24 36° 97° (E) 06:07:21 437.490
RS-15 26 Jan 06:03:46 06:14:44 81° 303° (WNW) 06:25:48 29.354- 29.394
STRAND 1 26 Jan 06:04:47 06:09:48 66° 74° (ENE) 06:14:54 437.568
CUSAT 1 26 Jan 06:17:42 06:24:25 27° 296° (WNW) 06:31:09 437.405
CUTE-I 26 Jan 06:18:19 06:23:36 56° 100° (E) 06:28:53 437.470
ISS 26 Jan 06:27:06 06:30:12 38° 224° (SW) 06:33:18 145.825
JAS-2 26 Jan 06:33:45 06:37:42 19° 294° (WNW) 06:41:40 435.910
PCSat 26 Jan 06:41:10 06:45:16 21° 314° (NW) 06:49:14 145.827
DANDE 26 Jan 07:16:36 07:20:38 13° 306° (NW) 07:24:11 436.750
CUBESAT XI-V 26 Jan 07:28:13 07:30:23 13° 271° (W) 07:32:17 437.345
HO-68 26 Jan 07:29:38 07:32:11 12° 86° (E) 07:35:17 435.675
AO-7 26 Jan 07:30:16 07:30:56 10° 315° (NW) 07:31:04 29.400- 29.500
YUBILEINY 26 Jan 07:36:22 07:45:09 79° 265° (W) 07:53:56 435.215
Cubesat XI-IV 26 Jan 07:37:49 07:42:23 28° 293° (WNW) 07:46:50 437.490
STRAND 1 26 Jan 07:47:00 07:49:35 13° 271° (W) 07:51:54 437.568
CUTE-I 26 Jan 07:59:33 08:03:18 19° 296° (WNW) 08:06:51 437.470
BRITE-PL 26 Jan 08:01:26 08:06:10 27° 92° (E) 08:10:53 437.365/2234.400
GOMX 1 26 Jan 08:15:00 08:19:23 25° 92° (E) 08:23:44 467.674
RS-15 26 Jan 08:20:13 08:29:12 27° 330° (NNW) 08:38:07 29.354- 29.394
COMPASS 1 26 Jan 08:20:13 08:22:40 16° 91° (E) 08:25:16 437.405
CANX-2 26 Jan 08:23:08 08:26:42 27° 95° (E) 08:30:20 2200.000
ANTELSAT 26 Jan 08:38:25 08:39:50 12° 64° (ENE) 08:41:31 437.575/2403.000
Oscar 11 26 Jan 08:39:20 08:39:55 10° 88° (E) 08:40:48 145.826/435.025
DOVE 4 26 Jan 08:43:27 08:48:08 33° 94° (E) 08:52:41 437.250
TIGRISAT 26 Jan 08:47:17 08:49:37 14° 65° (ENE) 08:52:10 435.000
CUTE 1.7 + AOD 2 26 Jan 08:47:27 08:51:32 47° 98° (E) 08:55:36 437.475
AAUSAT CUBESAT 2 26 Jan 08:48:20 08:51:56 28° 96° (E) 08:55:33 437.432
CINEMA 3 26 Jan 08:56:38 09:00:31 24° 92° (E) 09:04:22 145.822/145.860
CUBEBUG 2 26 Jan 08:56:44 08:58:37 13° 88° (E) 09:00:44 437.445
POPSAT HIP 1 26 Jan 09:01:58 09:02:18 10° 64° (ENE) 09:02:53 437.405
DELFI C3 26 Jan 09:04:07 09:06:35 16° 91° (E) 09:09:12 145.870
DUCHIFAT 1 26 Jan 09:05:46 09:06:59 11° 65° (ENE) 09:08:26 145.980
PHONESAT 2.4 26 Jan 09:08:45 09:09:31 11° 144° (SE) 09:10:24 2401.200-2431.200
UKube-1 26 Jan 09:11:22 09:13:34 14° 91° (E) 09:15:58 .
HO-68 26 Jan 09:13:56 09:21:07 82° 105° (ESE) 09:28:18 435.675
ZACube-1 26 Jan 09:18:59 09:21:29 15° 90° (E) 09:24:09 437.345
SEEDS 26 Jan 09:22:54 09:27:07 77° 284° (WNW) 09:31:18 437.485
DX 1 26 Jan 09:27:03 09:30:28 22° 94° (E) 09:33:58 434.975-435.025
FUNcube-1 26 Jan 09:31:31 09:34:49 21° 92° (E) 09:38:09 145.935
UNISAT 6 26 Jan 09:35:56 09:40:24 44° 72° (ENE) 09:44:55 437.425
YUBILEINY 26 Jan 09:36:35 09:40:44 14° 282° (WNW) 09:44:14 435.215
NANOSAT C BR1 26 Jan 09:37:04 09:40:32 25° 70° (ENE) 09:44:06 145.865
AISAT 26 Jan 09:37:32 09:38:07 10° 88° (E) 09:39:01 437.250
BRITE-PL 26 Jan 09:39:28 09:44:47 40° 289° (WNW) 09:49:55 437.365/2234.400
UWE-3 26 Jan 09:42:23 09:46:30 34° 96° (E) 09:50:31 435.000/436.395/437.385
HUMSAT D 26 Jan 09:48:36 09:51:19 17° 91° (E) 09:54:09 437.325/437.525
QB50P2 26 Jan 09:48:55 09:52:47 35° 72° (ENE) 09:56:44 145.880/145.840
GOMX 1 26 Jan 09:52:32 09:57:40 41° 289° (WNW) 10:02:34 467.674
COMPASS 1 26 Jan 09:54:43 09:58:37 39° 287° (WNW) 10:02:29 437.405
50 SAT 26 Jan 09:56:39 09:58:53 15° 91° (E) 10:01:17 437.505
CANX-2 26 Jan 09:59:09 10:02:35 24° 290° (WNW) 10:05:55 2200.000
QB50P1 26 Jan 09:59:17 10:03:20 45° 73° (ENE) 10:07:27 145.935-145.965
VELOX 1 26 Jan 10:05:13 10:08:39 22° 93° (E) 10:12:10 145.980
VERMONT LUNAR 26 Jan 10:05:25 10:08:43 42° 157° (SSE) 10:12:04 437.305
ANTELSAT 26 Jan 10:11:22 10:16:05 77° 258° (WSW) 10:20:50 437.575/2403.000
POLYITAN 1 26 Jan 10:11:30 10:15:44 64° 75° (ENE) 10:20:02 437.675
Oscar 11 26 Jan 10:12:21 10:16:37 62° 286° (WNW) 10:20:52 145.826/435.025
SO-50 26 Jan 10:20:24 10:23:58 24° 112° (ESE) 10:27:43 436.795
TIGRISAT 26 Jan 10:21:15 10:25:55 62° 260° (W) 10:30:37 435.000
DOVE 4 26 Jan 10:21:17 10:25:48 29° 292° (WNW) 10:30:06 437.250
AAUSAT CUBESAT 2 26 Jan 10:24:15 10:27:29 22° 291° (WNW) 10:30:36 437.432
CUTE 1.7 + AOD 2 26 Jan 10:24:44 10:27:08 14° 293° (WNW) 10:29:20 437.475
CUBEBUG 1 26 Jan 10:24:55 10:27:12 14° 90° (E) 10:29:41 437.445
BUGSAT 1 26 Jan 10:28:58 10:33:02 76° 75° (ENE) 10:37:10 437.445
CUBEBUG 2 26 Jan 10:31:17 10:35:51 57° 286° (WNW) 10:40:13 437.445
CINEMA 3 26 Jan 10:33:23 10:37:50 34° 290° (WNW) 10:42:04 145.822/145.860
POPSAT HIP 1 26 Jan 10:33:24 10:37:39 73° 258° (WSW) 10:41:58 437.405
AIST 1 26 Jan 10:35:45 10:36:36 11° 86° (E) 10:37:43
DUCHIFAT 1 26 Jan 10:38:09 10:42:22 64° 259° (W) 10:46:38 145.980
DELFI C3 26 Jan 10:38:18 10:42:02 35° 288° (WNW) 10:45:42 145.870
RS-15 26 Jan 10:40:06 10:46:56 18° 5° (N) 10:54:00 29.354- 29.394
PHONESAT 2.4 26 Jan 10:44:06 10:47:35 46° 157° (SSE) 10:51:05 2401.200-2431.200
UKube-1 26 Jan 10:45:51 10:50:04 48° 287° (WNW) 10:54:15 .
BEESAT 3 26 Jan 10:48:46 10:51:05 15° 43° (NE) 10:53:30 437.485
ZACube-1 26 Jan 10:53:55 10:58:13 45° 287° (WNW) 11:02:21 437.345
DX 1 26 Jan 11:02:52 11:06:47 31° 290° (WNW) 11:10:37 434.975-435.025
ESTCUBE 1 26 Jan 11:02:57 11:07:13 40° 98° (E) 11:11:30 437.505/2401.250
HO-68 26 Jan 11:03:13 11:08:08 20° 302° (WNW) 11:12:45 435.675
FUNcube-1 26 Jan 11:07:16 11:11:18 33° 289° (WNW) 11:15:10 145.935
AISAT 26 Jan 11:10:49 11:15:19 69° 285° (WNW) 11:19:48 437.250
NANOSAT C BR1 26 Jan 11:12:45 11:16:22 26° 265° (W) 11:19:56 145.865
TISAT 1 26 Jan 11:14:09 11:14:50 10° 88° (E) 11:15:49 437.305
UNISAT 6 26 Jan 11:14:11 11:17:27 18° 269° (W) 11:20:34 437.425
UWE-3 26 Jan 11:19:21 11:22:52 22° 292° (WNW) 11:26:11 435.000/436.395/437.385
HUMSAT D 26 Jan 11:23:23 11:27:20 37° 288° (WNW) 11:31:12 437.325/437.525
QB50P2 26 Jan 11:25:45 11:28:51 19° 268° (W) 11:31:51 145.880/145.840
50 SAT 26 Jan 11:30:27 11:34:16 39° 287° (WNW) 11:38:01 437.505
QB50P1 26 Jan 11:37:05 11:39:32 14° 270° (W) 11:41:49 145.935-145.965
VELOX 1 26 Jan 11:41:17 11:45:20 33° 289° (WNW) 11:49:19 145.980
GONETS M04 26 Jan 11:42:32 11:49:38 28° 68° (ENE) 11:56:58
VERMONT LUNAR 26 Jan 11:43:16 11:46:47 76° 352° (N) 11:50:19 437.305
AIST 2 26 Jan 11:46:50 11:50:04 21° 46° (NE) 11:53:21 435.215
POLYITAN 1 26 Jan 11:51:33 11:52:13 10° 272° (W) 11:52:35 437.675
SPROUT 26 Jan 11:58:26 12:02:28 36° 97° (E) 12:06:30 437.525
CUBEBUG 1 26 Jan 11:59:37 12:03:56 49° 287° (WNW) 12:08:13 437.445
SO-50 26 Jan 12:00:03 12:04:19 37° 309° (NW) 12:08:43 436.795
BEESAT 2 26 Jan 12:07:56 12:12:07 72° 57° (ENE) 12:16:14 435.950
AIST 1 26 Jan 12:09:39 12:13:49 54° 280° (W) 12:18:00
Oscar 19 26 Jan 12:12:35 12:17:15 35° 70° (ENE) 12:21:59 437.125/150
PHONESAT 2.4 26 Jan 12:22:28 12:26:06 75° 353° (N) 12:29:46 2401.200-2431.200
ITAMSAT 1 26 Jan 12:23:10 12:26:09 16° 63° (ENE) 12:29:22 435.822/435.867
BEESAT 3 26 Jan 12:25:34 12:29:41 63° 242° (WSW) 12:33:44 437.485
ESTCUBE 1 26 Jan 12:40:39 12:43:51 19° 293° (WNW) 12:46:55 437.505/2401.250
TISAT 1 26 Jan 12:46:54 12:51:10 62° 285° (WNW) 12:55:24 437.305
RS-15 26 Jan 12:54:06 13:04:05 36° 38° (NE) 13:14:39 29.354- 29.394
Gurwin Techsat 1B 26 Jan 12:59:37 13:03:44 24° 67° (ENE) 13:07:59 435.225
SWISSCUBE 26 Jan 13:16:26 13:20:55 40° 98° (E) 13:25:25 437.505
VERMONT LUNAR 26 Jan 13:21:30 13:25:02 81° 7° (N) 13:28:35 437.305
AIST 2 26 Jan 13:24:51 13:28:54 41° 244° (WSW) 13:32:51 435.215
BEESAT 26 Jan 13:32:46 13:37:27 55° 100° (E) 13:42:09 436.000
ITUPSAT 1 26 Jan 13:34:32 13:39:15 56° 100° (E) 13:43:58 437.325
SPROUT 26 Jan 13:35:12 13:38:21 19° 292° (WNW) 13:41:22 437.525
GONETS M04 26 Jan 13:38:36 13:47:07 60° 268° (W) 13:55:34
PCSat 26 Jan 13:45:07 13:50:12 39° 54° (NE) 13:55:17 145.827
Oscar 19 26 Jan 13:52:17 13:56:41 27° 266° (W) 14:01:00 437.125/150
HORYU 2 26 Jan 13:56:07 13:59:40 24° 69° (ENE) 14:03:19 437.375
ITAMSAT 1 26 Jan 14:00:05 14:05:12 63° 258° (WSW) 14:10:22 435.822/435.867
PHONESAT 2.4 26 Jan 14:01:08 14:04:48 85° 8° (N) 14:08:29 2401.200-2431.200
DANDE 26 Jan 14:32:12 14:36:58 19° 59° (ENE) 14:41:13 436.750
AO-7 26 Jan 14:37:06 14:44:54 47° 64° (ENE) 14:52:49 29.400- 29.500
Gurwin Techsat 1B 26 Jan 14:38:30 14:43:30 41° 262° (W) 14:48:31 435.225
KKS-1 26 Jan 14:45:59 14:50:28 66° 101° (E) 14:54:55 437.445
STARS 26 Jan 14:47:01 14:51:15 43° 98° (E) 14:55:29 437.465
SWISSCUBE 26 Jan 14:54:57 14:58:34 21° 293° (WNW) 15:02:03 437.505
VERMONT LUNAR 26 Jan 14:59:47 15:03:03 35° 205° (SSW) 15:06:18 437.305
JAS-2 26 Jan 15:00:46 15:04:37 20° 67° (ENE) 15:08:29 435.910
AUBIESAT-1 26 Jan 15:05:13 15:07:45 20° 101° (E) 15:10:23 437.475
RS-15 26 Jan 15:06:20 15:17:44 77° 242° (WSW) 15:29:36 29.354- 29.394
BEESAT 26 Jan 15:11:59 15:14:55 16° 295° (WNW) 15:17:41 436.000
ITUPSAT 1 26 Jan 15:13:51 15:16:45 16° 295° (WNW) 15:19:29 437.325
CUSAT 1 26 Jan 15:17:33 15:23:59 49° 73° (ENE) 15:28:50 437.405
PCSat 26 Jan 15:28:53 15:33:29 28° 251° (WSW) 15:37:57 145.827
HORYU 2 26 Jan 15:32:12 15:36:14 31° 264° (W) 15:40:13 437.375
PHONESAT 2.4 26 Jan 15:39:54 15:43:14 33° 206° (SSW) 15:46:34 2401.200-2431.200
O/OREOS (USA 219) 26 Jan 15:52:47 15:55:48 19° 102° (ESE) 15:58:59 437.305
MOZHAYETS 4 26 Jan 16:03:19 16:06:11 17° 91° (E) 16:09:14
M-CUBED/EXP-1 PRIME 26 Jan 16:03:40 16:06:53 47° 290° (WNW) 16:10:08 437.505
CUTE-I 26 Jan 16:04:11 16:05:09 11° 60° (ENE) 16:06:25 437.470
DANDE 26 Jan 16:14:32 16:21:31 65° 266° (W) 16:26:42 436.750
STARS 26 Jan 16:24:27 16:27:27 17° 294° (WNW) 16:30:18 437.465
KKS-1 26 Jan 16:24:43 16:26:38 12° 296° (WNW) 16:28:19 437.445
AO-7 26 Jan 16:30:06 16:37:51 39° 263° (W) 16:45:29 29.400- 29.500
AUBIESAT-1 26 Jan 16:40:15 16:42:40 19° 295° (WNW) 16:45:02 437.475
JAS-2 26 Jan 16:44:02 16:49:33 48° 260° (W) 16:54:40 435.910
CUSAT 1 26 Jan 17:01:44 17:06:17 20° 278° (W) 17:09:53 437.405
Cubesat XI-IV 26 Jan 17:18:27 17:23:36 54° 72° (ENE) 17:28:48 437.490
RS-15 26 Jan 17:21:55 17:28:44 17° 259° (W) 17:34:42 29.354- 29.394
O/OREOS (USA 219) 26 Jan 17:30:46 17:34:58 38° 297° (WNW) 17:39:11 437.305
PRISM 26 Jan 17:31:30 17:33:26 13° 91° (E) 17:35:35 437.425
CUTE-I 26 Jan 17:39:11 17:44:29 83° 76° (ENE) 17:49:51 437.470
MOZHAYETS 4 26 Jan 17:39:21 17:43:42 43° 287° (WNW) 17:48:00
CUBESAT XI-V 26 Jan 17:47:02 17:49:50 16° 90° (E) 17:52:51 437.345
STRAND 1 26 Jan 18:17:02 18:21:08 24° 94° (E) 18:25:20 437.568
YUBILEINY 26 Jan 18:41:38 18:48:00 25° 83° (E) 18:54:45 435.215
SO-50 26 Jan 18:52:21 18:56:01 21° 44° (NE) 18:59:49 436.795
Cubesat XI-IV 26 Jan 19:00:28 19:04:07 18° 269° (W) 19:07:34 437.490
PRISM 26 Jan 19:05:18 19:09:16 45° 287° (WNW) 19:13:14 437.425
BRITE-PL 26 Jan 19:11:21 19:15:21 26° 67° (ENE) 19:19:43 437.365/2234.400
COMPASS 1 26 Jan 19:12:54 19:13:41 11° 65° (ENE) 19:14:43 437.405
CANX-2 26 Jan 19:15:55 19:18:51 19° 68° (ENE) 19:21:55 2200.000
GOMX 1 26 Jan 19:22:10 19:26:02 23° 67° (ENE) 19:30:12 467.674
CUBESAT XI-V 26 Jan 19:23:06 19:27:37 48° 287° (WNW) 19:32:07 437.345
CUTE-I 26 Jan 19:23:45 19:25:22 11° 273° (W) 19:26:35 437.470
AAUSAT CUBESAT 2 26 Jan 19:39:15 19:42:08 19° 68° (ENE) 19:45:08 437.432
CUTE 1.7 + AOD 2 26 Jan 19:39:37 19:43:22 30° 71° (ENE) 19:47:10 437.475
HO-68 26 Jan 19:41:00 19:47:54 55° 69° (ENE) 19:54:51 435.675
DOVE 4 26 Jan 19:47:53 19:52:08 30° 69° (ENE) 19:56:40 437.250
CUBEBUG 2 26 Jan 19:55:05 19:56:28 11° 63° (ENE) 19:58:07 437.445
STRAND 1 26 Jan 19:55:43 20:00:28 38° 290° (WNW) 20:05:11 437.568
CINEMA 3 26 Jan 19:57:29 20:01:05 22° 67° (ENE) 20:04:55 145.822/145.860
UKube-1 26 Jan 20:06:50 20:08:11 12° 64° (ENE) 20:09:47 .
SEEDS 26 Jan 20:13:53 20:18:07 64° 75° (ENE) 20:22:20 437.485
ZACube-1 26 Jan 20:15:07 20:16:57 13° 65° (ENE) 20:19:02 437.345
DX 1 26 Jan 20:22:26 20:25:20 18° 67° (ENE) 20:28:21 434.975-435.025
FUNcube-1 26 Jan 20:27:02 20:29:50 17° 66° (ENE) 20:32:49 145.935
SO-50 26 Jan 20:32:08 20:36:59 56° 242° (WSW) 20:41:47 436.795
UWE-3 26 Jan 20:38:37 20:42:28 27° 70° (ENE) 20:46:26 435.000/436.395/437.385
JUGNU 26 Jan 20:40:43 20:42:14 11° 182° (S) 20:43:44 437.505
HUMSAT D 26 Jan 20:41:09 20:42:46 12° 65° (ENE) 20:44:38 437.325/437.525
